| time (UTC) | temp F | wind direction | speed knots | gust knots | rain 1hr in | rain 24hr in | rain mn in | humidity % | barometer mb |
| 20260507060800 | 64 | 145 | 2.6 | 7.8 | 0.00 | 0.01 | 0.01 | 81 | 1012.6 |
| 20260507060529 | 63 | 142 | 2.6 | 7.8 | 0.00 | 0.01 | 0.01 | 81 | 1012.8 |
| 20260507060252 | 63 | 135 | 3.5 | 7.0 | 0.00 | 0.01 | 0.01 | 82 | 1012.6 |
| 20260507060044 | 63 | 140 | 2.6 | 5.2 | 0.00 | 0.01 | 0.01 | 82 | 1012.9 |
| 20260507055746 | 63 | 172 | 3.5 | 5.2 | 0.00 | 0.01 | 0.01 | 83 | 1012.6 |
| 20260507055529 | 62 | 169 | 1.7 | 5.2 | 0.00 | 0.01 | 0.01 | 83 | 1012.9 |
| 20260507055030 | 62 | 174 | 1.7 | 5.2 | 0.00 | 0.01 | 0.01 | 84 | 1012.9 |
| 20260507054549 | 61 | 165 | 2.6 | 5.2 | 0.00 | 0.01 | 0.01 | 85 | 1012.8 |
| 20260507054241 | 62 | 82 | 2.6 | 4.3 | 0.00 | 0.01 | 0.01 | 86 | 1012.5 |
| 20260507054029 | 61 | 140 | 1.7 | 6.1 | 0.00 | 0.01 | 0.01 | 86 | 1012.8 |
| 20260507053743 | 62 | 148 | 2.6 | 6.1 | 0.00 | 0.01 | 0.01 | 87 | 1012.5 |
| 20260507053529 | 61 | 125 | 1.7 | 6.1 | 0.00 | 0.01 | 0.01 | 86 | 1012.7 |
| 20260507053238 | 61 | 153 | 1.7 | 6.1 | 0.00 | 0.01 | 0.01 | 87 | 1012.5 |
| 20260507053046 | 61 | 151 | 2.6 | 6.1 | 0.00 | 0.01 | 0.01 | 87 | 1012.7 |
| 20260507052528 | 60 | 150 | 2.6 | 6.1 | 0.00 | 0.01 | 0.01 | 87 | 1012.7 |
| 20260507052235 | 61 | 148 | 3.5 | 5.2 | 0.00 | 0.01 | 0.01 | 88 | 1012.4 |
| 20260507052029 | 60 | 155 | 2.6 | 5.2 | 0.00 | 0.01 | 0.01 | 87 | 1012.7 |
| 20260507051732 | 60 | 147 | 1.7 | 4.3 | 0.00 | 0.01 | 0.01 | 88 | 1012.4 |
| 20260507051541 | 60 | 184 | 1.7 | 4.3 | 0.00 | 0.01 | 0.01 | 88 | 1012.7 |
| 20260507051231 | 60 | 142 | 2.6 | 4.3 | 0.00 | 0.01 | 0.01 | 89 | 1012.3 |
| 20260507051029 | 60 | 159 | 0.9 | 4.3 | 0.00 | 0.01 | 0.01 | 88 | 1012.6 |
| 20260507050730 | 60 | 149 | 1.7 | 3.5 | 0.00 | 0.01 | 0.01 | 89 | 1012.2 |
| 20260507050528 | 59 | 132 | 0.9 | 4.3 | 0.00 | 0.01 | 0.01 | 89 | 1012.5 |
| 20260507050228 | 60 | 183 | 0.9 | 3.5 | 0.00 | 0.01 | 0.01 | 89 | 1012.2 |
| 20260507050048 | 59 | 185 | 0.9 | 4.3 | 0.00 | 0.01 | 0.01 | 89 | 1012.5 |
| 20260507045716 | 60 | 188 | 1.7 | 3.5 | 0.00 | 0.01 | 0.01 | 89 | 1012.1 |
| 20260507045528 | 59 | 149 | 1.7 | 4.3 | 0.00 | 0.01 | 0.01 | 89 | 1012.3 |
| 20260507045205 | 59 | 155 | 1.7 | 4.3 | 0.00 | 0.01 | 0.01 | 90 | 1011.9 |
| 20260507045030 | 59 | 138 | 0.9 | 4.3 | 0.00 | 0.01 | 0.01 | 89 | 1012.2 |
| 20260507044703 | 59 | 164 | 1.7 | 4.3 | 0.00 | 0.01 | 0.01 | 90 | 1011.9 |
| 20260507044542 | 59 | 144 | 1.7 | 4.3 | 0.00 | 0.01 | 0.01 | 89 | 1012.2 |
| 20260507044156 | 59 | 152 | 1.7 | 4.3 | 0.00 | 0.01 | 0.01 | 90 | 1011.8 |
| 20260507044029 | 58 | 144 | 1.7 | 5.2 | 0.00 | 0.01 | 0.01 | 89 | 1012.1 |
| 20260507043529 | 58 | 144 | 0.9 | 5.2 | 0.00 | 0.01 | 0.01 | 90 | 1011.9 |
| 20260507043153 | 59 | 126 | 1.7 | 4.3 | 0.00 | 0.01 | 0.01 | 90 | 1011.6 |
| 20260507043041 | 58 | 143 | 0.9 | 3.5 | 0.00 | 0.01 | 0.01 | 90 | 1011.8 |
| 20260507042530 | 58 | 121 | 1.7 | 4.3 | 0.00 | 0.01 | 0.01 | 90 | 1011.8 |
| 20260507042150 | 58 | 144 | 1.7 | 4.3 | 0.00 | 0.01 | 0.01 | 91 | 1011.5 |
| 20260507042028 | 58 | 154 | 1.7 | 4.3 | 0.00 | 0.01 | 0.01 | 90 | 1011.8 |
| 20260507041648 | 58 | 142 | 1.7 | 3.5 | 0.00 | 0.01 | 0.01 | 91 | 1011.4 |
| 20260507041541 | 58 | 136 | 0.9 | 3.5 | 0.00 | 0.01 | 0.01 | 90 | 1011.7 |
| 20260507041145 | 58 | 148 | 1.7 | 3.5 | 0.00 | 0.01 | 0.01 | 90 | 1011.5 |
| 20260507041028 | 57 | 159 | 0.9 | 3.5 | 0.00 | 0.01 | 0.01 | 90 | 1011.6 |
| 20260507040640 | 58 | 144 | 0.0 | 2.6 | 0.00 | 0.01 | 0.01 | 90 | 1011.3 |
| 20260507040530 | 57 | 0 | 0.0 | 2.6 | 0.00 | 0.01 | 0.01 | 90 | 1011.5 |
| 20260507040138 | 58 | 132 | 0.0 | 2.6 | 0.00 | 0.01 | 0.01 | 90 | 1011.2 |
| 20260507040059 | 57 | 0 | 0.0 | 2.6 | 0.00 | 0.01 | 0.01 | 90 | 1011.5 |
| 20260507035640 | 58 | 132 | 0.9 | 1.7 | 0.00 | 0.01 | 0.01 | 90 | 1011.2 |
| 20260507035529 | 57 | 132 | 0.0 | 1.7 | 0.00 | 0.01 | 0.01 | 89 | 1011.5 |
| 20260507035130 | 58 | 132 | 0.0 | 0.0 | 0.00 | 0.01 | 0.01 | 90 | 1011.2 |
| 20260507035028 | 57 | 0 | 0.0 | 0.0 | 0.00 | 0.01 | 0.01 | 89 | 1011.5 |
| 20260507034554 | 57 | 0 | 0.0 | 0.0 | 0.00 | 0.01 | 0.01 | 89 | 1011.5 |
| 20260507034126 | 58 | 132 | 0.0 | 0.0 | 0.00 | 0.01 | 0.01 | 89 | 1011.2 |
| 20260507034031 | 57 | 0 | 0.0 | 0.0 | 0.00 | 0.01 | 0.01 | 89 | 1011.5 |
| 20260507033532 | 58 | 0 | 0.0 | 0.9 | 0.00 | 0.01 | 0.01 | 88 | 1011.4 |
| 20260507033112 | 58 | 132 | 0.0 | 0.9 | 0.01 | 0.01 | 0.01 | 89 | 1011.2 |
| 20260507033045 | 58 | 0 | 0.0 | 0.9 | 0.00 | 0.01 | 0.01 | 88 | 1011.4 |
| 20260507032606 | 58 | 132 | 0.0 | 0.9 | 0.01 | 0.01 | 0.01 | 89 | 1011.2 |
| 20260507032528 | 58 | 132 | 0.0 | 0.9 | 0.01 | 0.01 | 0.01 | 88 | 1011.5 |
| 20260507032105 | 59 | 132 | 0.0 | 0.9 | 0.01 | 0.01 | 0.01 | 88 | 1011.3 |
| 20260507032032 | 58 | 0 | 0.0 | 1.7 | 0.01 | 0.01 | 0.01 | 88 | 1011.4 |
| 20260507031603 | 59 | 132 | 0.0 | 1.7 | 0.01 | 0.01 | 0.01 | 88 | 1011.2 |
| 20260507031541 | 58 | 0 | 0.0 | 2.6 | 0.01 | 0.01 | 0.01 | 88 | 1011.3 |
| 20260507031101 | 59 | 132 | 1.7 | 2.6 | 0.01 | 0.01 | 0.01 | 88 | 1011.1 |
| 20260507031029 | 59 | 132 | 0.9 | 2.6 | 0.01 | 0.01 | 0.01 | 87 | 1011.3 |
| 20260507030539 | 59 | 132 | 0.9 | 2.6 | 0.01 | 0.01 | 0.01 | 87 | 1011.1 |
| 20260507030529 | 59 | 132 | 0.9 | 2.6 | 0.01 | 0.01 | 0.01 | 87 | 1011.3 |
| 20260507030048 | 59 | 132 | 0.9 | 2.6 | 0.01 | 0.01 | 0.01 | 86 | 1011.3 |
| 20260507030037 | 60 | 132 | 1.7 | 2.6 | 0.01 | 0.01 | 0.01 | 87 | 1011.1 |
| 20260507025537 | 60 | 119 | 1.7 | 2.6 | 0.01 | 0.01 | 0.01 | 86 | 1010.9 |
| 20260507025528 | 59 | 119 | 0.9 | 2.6 | 0.01 | 0.01 | 0.01 | 85 | 1011.2 |
| 20260507025035 | 60 | 248 | 0.0 | 0.0 | 0.01 | 0.01 | 0.01 | 85 | 1011.0 |
| 20260507025028 | 60 | 0 | 0.0 | 0.0 | 0.01 | 0.01 | 0.01 | 84 | 1011.3 |
| 20260507024540 | 60 | 0 | 0.0 | 1.7 | 0.01 | 0.01 | 0.01 | 84 | 1011.3 |
| 20260507024032 | 61 | 248 | 0.0 | 1.7 | 0.01 | 0.01 | 0.01 | 83 | 1011.0 |
| 20260507023530 | 61 | 248 | 0.0 | 2.6 | 0.00 | 0.00 | 0.00 | 81 | 1011.5 |
| 20260507023524 | 62 | 248 | 0.9 | 1.7 | 0.00 | 0.00 | 0.00 | 82 | 1011.2 |
| 20260507023047 | 62 | 242 | 0.0 | 2.6 | 0.00 | 0.00 | 0.00 | 79 | 1011.5 |
| 20260507023007 | 62 | 242 | 0.9 | 2.6 | 0.00 | 0.00 | 0.00 | 79 | 1011.3 |
| 20260507022530 | 62 | 0 | 0.9 | 3.5 | 0.00 | 0.00 | 0.00 | 77 | 1011.6 |
| 20260507022510 | 62 | 242 | 0.9 | 2.6 | 0.00 | 0.00 | 0.00 | 78 | 1011.3 |
| 20260507022028 | 62 | 246 | 0.9 | 3.5 | 0.00 | 0.00 | 0.00 | 76 | 1011.6 |
| 20260507022005 | 63 | 246 | 1.7 | 3.5 | 0.00 | 0.00 | 0.00 | 77 | 1011.3 |
| 20260507021546 | 62 | 265 | 0.9 | 3.5 | 0.00 | 0.00 | 0.00 | 76 | 1011.6 |
| 20260507021502 | 63 | 273 | 1.7 | 3.5 | 0.00 | 0.00 | 0.00 | 76 | 1011.3 |
| 20260507021029 | 62 | 266 | 1.7 | 3.5 | 0.00 | 0.00 | 0.00 | 75 | 1011.6 |
| 20260507020530 | 62 | 281 | 1.7 | 3.5 | 0.00 | 0.00 | 0.00 | 75 | 1011.5 |
| 20260507020459 | 63 | 281 | 1.7 | 3.5 | 0.00 | 0.00 | 0.00 | 76 | 1011.2 |
| 20260507020100 | 62 | 300 | 1.7 | 3.5 | 0.00 | 0.00 | 0.00 | 75 | 1011.5 |
| 20260507020002 | 63 | 290 | 1.7 | 3.5 | 0.00 | 0.00 | 0.00 | 76 | 1011.1 |
| 20260507015531 | 62 | 298 | 0.9 | 7.0 | 0.00 | 0.00 | 0.00 | 75 | 1011.3 |
| 20260507015030 | 62 | 315 | 1.7 | 7.0 | 0.00 | 0.00 | 0.00 | 74 | 1011.2 |
| 20260507014950 | 63 | 315 | 1.7 | 7.0 | 0.00 | 0.00 | 0.00 | 75 | 1011.0 |
| 20260507014549 | 62 | 273 | 3.5 | 7.0 | 0.00 | 0.00 | 0.00 | 74 | 1011.3 |
| 20260507014448 | 63 | 289 | 3.5 | 7.0 | 0.00 | 0.00 | 0.00 | 75 | 1011.0 |
| 20260507014030 | 62 | 284 | 2.6 | 6.1 | 0.00 | 0.00 | 0.00 | 74 | 1011.3 |
| 20260507013946 | 63 | 286 | 3.5 | 6.1 | 0.00 | 0.00 | 0.00 | 75 | 1010.9 |
| 20260507013529 | 62 | 273 | 1.7 | 7.0 | 0.00 | 0.00 | 0.00 | 74 | 1011.2 |
| 20260507013049 | 62 | 278 | 2.6 | 7.0 | 0.00 | 0.00 | 0.00 | 74 | 1011.3 |
| 20260507012943 | 63 | 287 | 2.6 | 7.0 | 0.00 | 0.00 | 0.00 | 74 | 1010.9 |
| 20260507012529 | 62 | 265 | 2.6 | 7.8 | 0.00 | 0.00 | 0.00 | 74 | 1011.1 |
| 20260507012029 | 62 | 275 | 3.5 | 7.8 | 0.00 | 0.00 | 0.00 | 74 | 1011.1 |
| 20260507011944 | 62 | 279 | 3.5 | 7.8 | 0.00 | 0.00 | 0.00 | 74 | 1010.9 |
| 20260507011556 | 62 | 283 | 2.6 | 7.8 | 0.00 | 0.00 | 0.00 | 74 | 1011.0 |
| 20260507011029 | 62 | 226 | 3.5 | 7.8 | 0.00 | 0.00 | 0.00 | 74 | 1011.1 |
| 20260507010937 | 62 | 273 | 4.3 | 7.8 | 0.00 | 0.00 | 0.00 | 75 | 1010.8 |
| 20260507010529 | 61 | 263 | 2.6 | 7.8 | 0.00 | 0.00 | 0.00 | 75 | 1011.1 |
| 20260507010438 | 61 | 299 | 3.5 | 7.8 | 0.00 | 0.00 | 0.00 | 76 | 1010.8 |
| 20260507010044 | 60 | 255 | 2.6 | 7.8 | 0.00 | 0.00 | 0.00 | 76 | 1011.1 |
| 20260507005934 | 61 | 270 | 2.6 | 3.5 | 0.00 | 0.00 | 0.00 | 76 | 1010.8 |
| 20260507005529 | 60 | 286 | 1.7 | 6.1 | 0.00 | 0.00 | 0.00 | 76 | 1011.1 |
| 20260507005030 | 60 | 254 | 2.6 | 6.1 | 0.00 | 0.00 | 0.00 | 76 | 1011.1 |
| 20260507004930 | 60 | 273 | 2.6 | 5.2 | 0.00 | 0.00 | 0.00 | 76 | 1010.8 |
| 20260507004552 | 60 | 253 | 0.9 | 6.1 | 0.00 | 0.00 | 0.00 | 75 | 1011.2 |
| 20260507004428 | 60 | 252 | 1.7 | 5.2 | 0.00 | 0.00 | 0.00 | 76 | 1010.8 |
| 20260507004029 | 59 | 244 | 1.7 | 5.2 | 0.00 | 0.00 | 0.00 | 76 | 1011.2 |
| 20260507003530 | 59 | 256 | 1.7 | 3.5 | 0.00 | 0.00 | 0.00 | 76 | 1011.2 |
| 20260507003425 | 59 | 249 | 1.7 | 3.5 | 0.00 | 0.00 | 0.00 | 76 | 1010.9 |
| 20260507003041 | 58 | 238 | 1.7 | 2.6 | 0.00 | 0.00 | 0.00 | 76 | 1011.2 |
| 20260507002924 | 59 | 252 | 1.7 | 2.6 | 0.00 | 0.00 | 0.00 | 76 | 1010.9 |
| 20260507002528 | 58 | 236 | 0.9 | 2.6 | 0.00 | 0.00 | 0.00 | 74 | 1011.3 |
| 20260507002422 | 59 | 222 | 1.7 | 2.6 | 0.00 | 0.00 | 0.00 | 74 | 1011.0 |
| 20260507002029 | 58 | 232 | 0.0 | 1.7 | 0.00 | 0.00 | 0.00 | 73 | 1011.3 |
| 20260507001921 | 59 | 232 | 0.9 | 1.7 | 0.00 | 0.00 | 0.00 | 74 | 1011.0 |
| 20260507001550 | 58 | 0 | 0.0 | 3.5 | 0.00 | 0.00 | 0.00 | 73 | 1011.3 |
| 20260507001028 | 58 | 218 | 0.9 | 3.5 | 0.00 | 0.00 | 0.00 | 74 | 1011.4 |
| 20260507000907 | 59 | 183 | 1.7 | 3.5 | 0.00 | 0.00 | 0.00 | 74 | 1011.1 |
| 20260507000529 | 58 | 0 | 0.0 | 2.6 | 0.00 | 0.00 | 0.00 | 74 | 1011.4 |
| 20260507000042 | 58 | 0 | 0.9 | 2.6 | 0.00 | 0.00 | 0.00 | 74 | 1011.3 |
| 20260506235529 | 58 | 198 | 0.9 | 2.6 | 0.00 | 0.00 | 0.00 | 74 | 1011.3 |
| 20260506235402 | 58 | 199 | 0.9 | 2.6 | 0.00 | 0.00 | 0.00 | 74 | 1011.0 |
| 20260506235030 | 58 | 191 | 0.9 | 2.6 | 0.00 | 0.00 | 0.00 | 74 | 1011.3 |
| 20260506234851 | 58 | 179 | 0.9 | 2.6 | 0.00 | 0.00 | 0.00 | 74 | 1011.0 |
| 20260506234545 | 58 | 196 | 0.9 | 2.6 | 0.00 | 0.00 | 0.00 | 74 | 1011.2 |
| 20260506234029 | 58 | 200 | 0.9 | 3.5 | 0.00 | 0.00 | 0.00 | 74 | 1011.2 |
| 20260506233851 | 58 | 200 | 1.7 | 3.5 | 0.00 | 0.00 | 0.00 | 75 | 1011.0 |
| 20260506233529 | 57 | 198 | 0.9 | 3.5 | 0.00 | 0.00 | 0.00 | 75 | 1011.2 |
| 20260506233339 | 58 | 204 | 1.7 | 3.5 | 0.00 | 0.00 | 0.00 | 76 | 1010.8 |
| 20260506233043 | 57 | 169 | 0.9 | 3.5 | 0.00 | 0.00 | 0.00 | 76 | 1011.1 |
| 20260506232528 | 56 | 197 | 0.9 | 3.5 | 0.00 | 0.00 | 0.00 | 76 | 1011.1 |
| 20260506232332 | 57 | 161 | 0.9 | 3.5 | 0.00 | 0.00 | 0.00 | 77 | 1010.8 |
| 20260506232028 | 56 | 161 | 0.9 | 3.5 | 0.00 | 0.00 | 0.00 | 76 | 1011.0 |
| 20260506231831 | 57 | 161 | 1.7 | 3.5 | 0.00 | 0.00 | 0.00 | 76 | 1010.7 |
| 20260506231541 | 56 | 161 | 0.0 | 0.0 | 0.00 | 0.00 | 0.00 | 75 | 1011.0 |
| 20260506231333 | 57 | 178 | 0.0 | 0.0 | 0.00 | 0.00 | 0.00 | 76 | 1010.7 |
| 20260506231029 | 56 | 0 | 0.0 | 0.0 | 0.00 | 0.00 | 0.00 | 75 | 1010.9 |
| 20260506230529 | 56 | 0 | 0.0 | 0.0 | 0.00 | 0.00 | 0.00 | 75 | 1010.9 |
| 20260506230321 | 57 | 178 | 0.0 | 0.0 | 0.00 | 0.00 | 0.00 | 75 | 1010.6 |
| 20260506230048 | 57 | 0 | 0.0 | 0.0 | 0.00 | 0.00 | 0.00 | 74 | 1011.0 |
| 20260506225819 | 57 | 178 | 0.0 | 0.0 | 0.00 | 0.00 | 0.00 | 75 | 1010.6 |
| 20260506225528 | 57 | 0 | 0.0 | 0.0 | 0.00 | 0.00 | 0.00 | 74 | 1010.9 |
| 20260506225305 | 57 | 178 | 0.0 | 0.0 | 0.00 | 0.00 | 0.00 | 75 | 1010.7 |
| 20260506225028 | 57 | 0 | 0.0 | 0.0 | 0.00 | 0.00 | 0.00 | 74 | 1011.0 |
| 20260506224805 | 58 | 178 | 0.0 | 0.0 | 0.00 | 0.00 | 0.00 | 74 | 1010.6 |
| 20260506224540 | 57 | 0 | 0.0 | 0.0 | 0.00 | 0.00 | 0.00 | 74 | 1010.8 |
| 20260506224259 | 58 | 178 | 0.0 | 0.0 | 0.00 | 0.00 | 0.00 | 74 | 1010.7 |
| 20260506224029 | 57 | 0 | 0.0 | 0.0 | 0.00 | 0.00 | 0.00 | 73 | 1011.0 |
| 20260506223757 | 58 | 178 | 0.0 | 2.6 | 0.00 | 0.00 | 0.00 | 73 | 1010.7 |
| 20260506223529 | 57 | 0 | 0.0 | 2.6 | 0.00 | 0.00 | 0.00 | 73 | 1010.9 |
| 20260506223245 | 58 | 178 | 0.0 | 2.6 | 0.00 | 0.00 | 0.00 | 73 | 1010.7 |
| 20260506223045 | 58 | 0 | 0.0 | 2.6 | 0.00 | 0.00 | 0.00 | 73 | 1010.9 |
| 20260506222744 | 58 | 180 | 0.9 | 1.7 | 0.00 | 0.00 | 0.00 | 73 | 1010.6 |
| 20260506222529 | 58 | 180 | 0.0 | 2.6 | 0.00 | 0.00 | 0.00 | 72 | 1010.9 |
| 20260506222241 | 58 | 195 | 0.0 | 2.6 | 0.00 | 0.00 | 0.00 | 73 | 1010.6 |
| 20260506222030 | 58 | 0 | 0.0 | 2.6 | 0.00 | 0.00 | 0.00 | 72 | 1010.8 |
| 20260506221735 | 58 | 195 | 0.9 | 2.6 | 0.00 | 0.00 | 0.00 | 72 | 1010.6 |
| 20260506221545 | 58 | 195 | 0.9 | 2.6 | 0.00 | 0.00 | 0.00 | 72 | 1010.8 |
| 20260506221234 | 59 | 178 | 0.9 | 2.6 | 0.00 | 0.00 | 0.00 | 72 | 1010.6 |
| 20260506221029 | 58 | 161 | 0.9 | 2.6 | 0.00 | 0.00 | 0.00 | 72 | 1010.8 |
| 20260506220732 | 59 | 157 | 0.9 | 2.6 | 0.00 | 0.00 | 0.00 | 72 | 1010.5 |
| 20260506220529 | 58 | 200 | 0.0 | 2.6 | 0.00 | 0.00 | 0.00 | 71 | 1010.8 |
| 20260506220226 | 59 | 209 | 0.0 | 2.6 | 0.00 | 0.00 | 0.00 | 72 | 1010.5 |
| 20260506220058 | 59 | 0 | 0.0 | 4.3 | 0.00 | 0.00 | 0.00 | 72 | 1010.7 |
| 20260506215728 | 59 | 209 | 0.9 | 5.2 | 0.00 | 0.00 | 0.00 | 72 | 1010.6 |
| 20260506215528 | 59 | 209 | 0.9 | 5.2 | 0.00 | 0.00 | 0.00 | 72 | 1010.8 |
| 20260506215221 | 59 | 213 | 1.7 | 5.2 | 0.00 | 0.00 | 0.00 | 73 | 1010.6 |
| 20260506215028 | 58 | 221 | 2.6 | 5.2 | 0.00 | 0.00 | 0.00 | 73 | 1010.8 |
| 20260506214716 | 58 | 261 | 1.7 | 3.5 | 0.00 | 0.00 | 0.00 | 74 | 1010.6 |
| 20260506214545 | 58 | 215 | 0.9 | 2.6 | 0.00 | 0.00 | 0.00 | 74 | 1010.6 |
| 20260506214030 | 58 | 137 | 0.0 | 0.0 | 0.00 | 0.00 | 0.00 | 74 | 1010.6 |
| 20260506213713 | 58 | 137 | 0.0 | 0.0 | 0.00 | 0.00 | 0.00 | 74 | 1010.2 |
| 20260506213530 | 58 | 0 | 0.0 | 0.0 | 0.00 | 0.00 | 0.00 | 73 | 1010.4 |
| 20260506213050 | 58 | 0 | 0.0 | 0.0 | 0.00 | 0.00 | 0.00 | 73 | 1010.4 |
| 20260506212532 | 58 | 0 | 0.0 | 0.0 | 0.00 | 0.00 | 0.00 | 72 | 1010.5 |
| 20260506212157 | 59 | 137 | 0.0 | 0.0 | 0.00 | 0.00 | 0.00 | 72 | 1010.3 |
| 20260506212030 | 58 | 0 | 0.0 | 0.0 | 0.00 | 0.00 | 0.00 | 71 | 1010.5 |
| 20260506211542 | 58 | 0 | 0.0 | 0.0 | 0.00 | 0.00 | 0.00 | 71 | 1010.5 |
| 20260506211143 | 59 | 137 | 0.0 | 0.0 | 0.00 | 0.00 | 0.00 | 71 | 1010.3 |
| 20260506211028 | 59 | 0 | 0.0 | 0.0 | 0.00 | 0.00 | 0.00 | 71 | 1010.6 |
| 20260506210646 | 59 | 137 | 0.0 | 0.0 | 0.00 | 0.00 | 0.00 | 71 | 1010.2 |
| 20260506210531 | 59 | 0 | 0.0 | 0.0 | 0.00 | 0.00 | 0.00 | 71 | 1010.5 |
| 20260506210130 | 59 | 137 | 0.0 | 0.0 | 0.00 | 0.00 | 0.00 | 71 | 1010.2 |
| 20260506210055 | 59 | 0 | 0.0 | 0.0 | 0.00 | 0.00 | 0.00 | 70 | 1010.3 |
| 20260506205629 | 60 | 137 | 0.0 | 0.0 | 0.00 | 0.00 | 0.00 | 71 | 1010.2 |
| 20260506205531 | 59 | 0 | 0.0 | 0.0 | 0.00 | 0.00 | 0.00 | 70 | 1010.4 |
| 20260506205127 | 60 | 137 | 0.0 | 0.0 | 0.00 | 0.00 | 0.00 | 70 | 1010.2 |
| 20260506205031 | 59 | 0 | 0.0 | 0.0 | 0.00 | 0.00 | 0.00 | 69 | 1010.4 |
| 20260506204625 | 60 | 137 | 0.0 | 0.0 | 0.00 | 0.00 | 0.00 | 69 | 1010.1 |
| 20260506204544 | 59 | 0 | 0.0 | 0.0 | 0.00 | 0.00 | 0.00 | 69 | 1010.3 |
| 20260506204124 | 60 | 137 | 0.0 | 0.0 | 0.00 | 0.00 | 0.00 | 69 | 1010.0 |
| 20260506204032 | 60 | 0 | 0.0 | 0.0 | 0.00 | 0.00 | 0.00 | 69 | 1010.4 |
| 20260506203623 | 60 | 137 | 0.0 | 0.0 | 0.00 | 0.00 | 0.00 | 68 | 1010.0 |
| 20260506203528 | 60 | 0 | 0.0 | 0.0 | 0.00 | 0.00 | 0.00 | 68 | 1010.3 |
| 20260506203130 | 60 | 0 | 0.0 | 0.0 | 0.00 | 0.00 | 0.00 | 67 | 1010.3 |
| 20260506203121 | 60 | 137 | 0.0 | 0.0 | 0.00 | 0.00 | 0.00 | 68 | 1010.0 |
| 20260506202620 | 61 | 137 | 0.0 | 0.0 | 0.00 | 0.00 | 0.00 | 68 | 1010.0 |
| 20260506202530 | 60 | 0 | 0.0 | 0.0 | 0.00 | 0.00 | 0.00 | 67 | 1010.3 |
| 20260506202118 | 61 | 137 | 0.0 | 1.7 | 0.00 | 0.00 | 0.00 | 67 | 1010.0 |
| 20260506202029 | 61 | 0 | 0.0 | 2.6 | 0.00 | 0.00 | 0.00 | 67 | 1010.3 |
| 20260506201616 | 61 | 137 | 0.0 | 2.6 | 0.00 | 0.00 | 0.00 | 67 | 1010.1 |
| 20260506201541 | 61 | 0 | 0.0 | 2.6 | 0.00 | 0.00 | 0.00 | 67 | 1010.3 |
| 20260506201055 | 61 | 128 | 1.7 | 2.6 | 0.00 | 0.00 | 0.00 | 67 | 1010.2 |
| 20260506201030 | 61 | 128 | 0.9 | 2.6 | 0.00 | 0.00 | 0.00 | 67 | 1010.2 |
| 20260506200557 | 62 | 132 | 0.0 | 2.6 | 0.00 | 0.00 | 0.00 | 67 | 1010.1 |
| 20260506200528 | 61 | 0 | 0.0 | 2.6 | 0.00 | 0.00 | 0.00 | 67 | 1010.3 |
| 20260506200052 | 61 | 132 | 1.7 | 2.6 | 0.00 | 0.00 | 0.00 | 67 | 1010.0 |
| 20260506200047 | 61 | 117 | 0.9 | 2.6 | 0.00 | 0.00 | 0.00 | 66 | 1010.3 |
| 20260506195529 | 61 | 122 | 0.9 | 2.6 | 0.00 | 0.00 | 0.00 | 66 | 1010.2 |
| 20260506195043 | 61 | 136 | 1.7 | 2.6 | 0.00 | 0.00 | 0.00 | 66 | 1010.1 |
| 20260506195029 | 61 | 121 | 1.7 | 2.6 | 0.00 | 0.00 | 0.00 | 66 | 1010.4 |
| 20260506194545 | 61 | 126 | 0.9 | 2.6 | 0.00 | 0.00 | 0.00 | 66 | 1010.3 |
| 20260506194541 | 62 | 126 | 0.9 | 2.6 | 0.00 | 0.00 | 0.00 | 66 | 1010.1 |
| 20260506194040 | 62 | 168 | 0.0 | 0.0 | 0.00 | 0.00 | 0.00 | 66 | 1010.0 |
| 20260506194028 | 61 | 0 | 0.0 | 0.0 | 0.00 | 0.00 | 0.00 | 65 | 1010.3 |
| 20260506193541 | 62 | 168 | 0.0 | 0.0 | 0.00 | 0.00 | 0.00 | 65 | 1010.1 |
| 20260506193528 | 62 | 0 | 0.0 | 0.0 | 0.00 | 0.00 | 0.00 | 65 | 1010.3 |
| 20260506193045 | 62 | 0 | 0.0 | 0.0 | 0.00 | 0.00 | 0.00 | 64 | 1010.3 |
| 20260506193022 | 62 | 168 | 0.0 | 0.0 | 0.00 | 0.00 | 0.00 | 65 | 1010.0 |
| 20260506192529 | 62 | 0 | 0.0 | 0.9 | 0.00 | 0.00 | 0.00 | 64 | 1010.3 |
| 20260506192520 | 63 | 168 | 0.0 | 0.0 | 0.00 | 0.00 | 0.00 | 64 | 1010.1 |
| 20260506192029 | 63 | 0 | 0.0 | 0.9 | 0.00 | 0.00 | 0.00 | 63 | 1010.2 |
| 20260506191544 | 63 | 0 | 0.0 | 0.9 | 0.00 | 0.00 | 0.00 | 63 | 1010.1 |
| 20260506191517 | 64 | 168 | 0.0 | 0.9 | 0.00 | 0.00 | 0.00 | 63 | 1010.0 |
| 20260506191029 | 64 | 0 | 0.0 | 1.7 | 0.00 | 0.00 | 0.00 | 62 | 1010.1 |
| 20260506191018 | 64 | 168 | 0.0 | 1.7 | 0.00 | 0.00 | 0.00 | 62 | 1009.9 |
| 20260506190529 | 64 | 0 | 0.0 | 1.7 | 0.00 | 0.00 | 0.00 | 61 | 1010.2 |
| 20260506190513 | 65 | 168 | 0.0 | 1.7 | 0.00 | 0.00 | 0.00 | 62 | 1009.9 |
| 20260506190048 | 64 | 168 | 0.0 | 1.7 | 0.00 | 0.00 | 0.00 | 61 | 1010.1 |
| 20260506190012 | 65 | 168 | 0.9 | 1.7 | 0.00 | 0.00 | 0.00 | 61 | 1009.9 |
| 20260506185531 | 65 | 0 | 0.0 | 0.9 | 0.00 | 0.00 | 0.00 | 60 | 1010.0 |
| 20260506185029 | 65 | 0 | 0.0 | 1.7 | 0.00 | 0.00 | 0.00 | 59 | 1010.0 |
| 20260506185008 | 66 | 168 | 0.0 | 1.7 | 0.00 | 0.00 | 0.00 | 59 | 1009.8 |
| 20260506184554 | 66 | 0 | 0.0 | 1.7 | 0.00 | 0.00 | 0.00 | 58 | 1010.0 |
| 20260506184507 | 66 | 168 | 0.0 | 1.7 | 0.00 | 0.00 | 0.00 | 58 | 1009.8 |
| 20260506184029 | 66 | 0 | 0.0 | 1.7 | 0.00 | 0.00 | 0.00 | 57 | 1010.0 |
| 20260506184005 | 67 | 168 | 0.9 | 1.7 | 0.00 | 0.00 | 0.00 | 58 | 1009.7 |
| 20260506183529 | 67 | 173 | 0.0 | 0.9 | 0.00 | 0.00 | 0.00 | 57 | 1010.0 |
| 20260506183044 | 67 | 0 | 0.0 | 1.7 | 0.00 | 0.00 | 0.00 | 56 | 1009.9 |
| 20260506182951 | 68 | 173 | 0.0 | 1.7 | 0.00 | 0.00 | 0.00 | 56 | 1009.7 |
| 20260506182528 | 68 | 0 | 0.0 | 1.7 | 0.00 | 0.00 | 0.00 | 55 | 1009.8 |
| 20260506182451 | 69 | 173 | 0.9 | 1.7 | 0.00 | 0.00 | 0.00 | 55 | 1009.6 |
| 20260506182031 | 69 | 0 | 0.0 | 1.7 | 0.00 | 0.00 | 0.00 | 53 | 1009.8 |
| 20260506181541 | 70 | 0 | 0.0 | 2.6 | 0.00 | 0.00 | 0.00 | 52 | 1009.7 |
| 20260506181442 | 70 | 175 | 0.0 | 1.7 | 0.00 | 0.00 | 0.00 | 53 | 1009.5 |
| 20260506181030 | 70 | 0 | 0.0 | 2.6 | 0.00 | 0.00 | 0.00 | 52 | 1009.7 |
| 20260506180530 | 71 | 168 | 0.0 | 4.3 | 0.00 | 0.00 | 0.00 | 50 | 1009.6 |
| 20260506180439 | 71 | 173 | 0.9 | 3.5 | 0.00 | 0.00 | 0.00 | 51 | 1009.4 |
| 20260506180045 | 71 | 0 | 0.9 | 4.3 | 0.00 | 0.00 | 0.00 | 49 | 1009.6 |
| 20260506175941 | 72 | 166 | 1.7 | 4.3 | 0.00 | 0.00 | 0.00 | 50 | 1009.4 |
| 20260506175529 | 72 | 177 | 1.7 | 5.2 | 0.00 | 0.00 | 0.00 | 48 | 1009.6 |
| 20260506175434 | 72 | 189 | 2.6 | 5.2 | 0.00 | 0.00 | 0.00 | 49 | 1009.4 |
| 20260506175029 | 72 | 161 | 1.7 | 5.2 | 0.00 | 0.00 | 0.00 | 48 | 1009.6 |
| 20260506174928 | 72 | 171 | 2.6 | 5.2 | 0.00 | 0.00 | 0.00 | 48 | 1009.3 |
| 20260506174543 | 72 | 173 | 1.7 | 5.2 | 0.00 | 0.00 | 0.00 | 47 | 1009.5 |
| 20260506174029 | 73 | 169 | 2.6 | 6.1 | 0.00 | 0.00 | 0.00 | 47 | 1009.5 |
| 20260506173925 | 73 | 175 | 2.6 | 6.1 | 0.00 | 0.00 | 0.00 | 47 | 1009.2 |
| 20260506173530 | 73 | 158 | 1.7 | 6.1 | 0.00 | 0.00 | 0.00 | 46 | 1009.5 |
| 20260506173423 | 74 | 175 | 1.7 | 6.1 | 0.00 | 0.00 | 0.00 | 46 | 1009.3 |
| 20260506173053 | 73 | 145 | 1.7 | 6.1 | 0.00 | 0.00 | 0.00 | 46 | 1009.5 |
| 20260506172922 | 74 | 160 | 1.7 | 6.1 | 0.00 | 0.00 | 0.00 | 46 | 1009.2 |
| 20260506172529 | 73 | 140 | 2.6 | 7.0 | 0.00 | 0.00 | 0.00 | 46 | 1009.5 |
| 20260506172421 | 74 | 163 | 2.6 | 7.0 | 0.00 | 0.00 | 0.00 | 46 | 1009.2 |
| 20260506172030 | 74 | 178 | 3.5 | 7.0 | 0.00 | 0.00 | 0.00 | 45 | 1009.5 |
| 20260506171919 | 74 | 161 | 4.3 | 7.0 | 0.00 | 0.00 | 0.00 | 46 | 1009.2 |
| 20260506171544 | 74 | 162 | 2.6 | 7.0 | 0.00 | 0.00 | 0.00 | 45 | 1009.5 |
| 20260506171417 | 74 | 157 | 3.5 | 7.0 | 0.00 | 0.00 | 0.00 | 46 | 1009.2 |
| 20260506171029 | 74 | 154 | 2.6 | 6.1 | 0.00 | 0.00 | 0.00 | 45 | 1009.4 |
| 20260506170916 | 75 | 163 | 2.6 | 6.1 | 0.00 | 0.00 | 0.00 | 45 | 1009.3 |
| 20260506170531 | 74 | 159 | 2.6 | 7.0 | 0.00 | 0.00 | 0.00 | 44 | 1009.5 |
| 20260506170043 | 75 | 179 | 2.6 | 7.8 | 0.00 | 0.00 | 0.00 | 44 | 1009.5 |
| 20260506165912 | 75 | 192 | 3.5 | 7.8 | 0.00 | 0.00 | 0.00 | 45 | 1009.2 |
| 20260506165529 | 75 | 153 | 2.6 | 7.8 | 0.00 | 0.00 | 0.00 | 44 | 1009.5 |
| 20260506165415 | 75 | 171 | 2.6 | 7.8 | 0.00 | 0.00 | 0.00 | 44 | 1009.2 |
| 20260506165029 | 75 | 177 | 2.6 | 7.8 | 0.00 | 0.00 | 0.00 | 43 | 1009.5 |
| 20260506164547 | 75 | 163 | 3.5 | 8.7 | 0.00 | 0.00 | 0.00 | 43 | 1009.5 |
| 20260506164407 | 76 | 175 | 3.5 | 8.7 | 0.00 | 0.00 | 0.00 | 44 | 1009.3 |
| 20260506164028 | 75 | 151 | 3.5 | 10.4 | 0.00 | 0.00 | 0.00 | 42 | 1009.5 |
| 20260506163531 | 76 | 148 | 5.2 | 10.4 | 0.00 | 0.00 | 0.00 | 42 | 1009.5 |
| 20260506163404 | 76 | 182 | 5.2 | 10.4 | 0.00 | 0.00 | 0.00 | 42 | 1009.3 |
| 20260506163140 | 76 | 196 | 3.5 | 8.7 | 0.00 | 0.00 | 0.00 | 42 | 1009.6 |
| 20260506162530 | 77 | 196 | 4.3 | 9.6 | 0.00 | 0.00 | 0.00 | 41 | 1009.5 |
| 20260506162029 | 77 | 156 | 3.5 | 10.4 | 0.00 | 0.00 | 0.00 | 41 | 1009.6 |
| 20260506161900 | 78 | 186 | 4.3 | 10.4 | 0.00 | 0.00 | 0.00 | 41 | 1009.4 |
| 20260506161544 | 77 | 161 | 4.3 | 12.2 | 0.00 | 0.00 | 0.00 | 40 | 1009.6 |
| 20260506161358 | 78 | 209 | 2.6 | 11.3 | 0.00 | 0.00 | 0.00 | 41 | 1009.4 |
| 20260506161030 | 77 | 235 | 5.2 | 12.2 | 0.00 | 0.00 | 0.00 | 40 | 1009.6 |
| 20260506160856 | 78 | 196 | 6.1 | 11.3 | 0.00 | 0.00 | 0.00 | 40 | 1009.4 |
| 20260506160530 | 78 | 161 | 4.3 | 11.3 | 0.00 | 0.00 | 0.00 | 40 | 1009.6 |
| 20260506160354 | 78 | 196 | 4.3 | 9.6 | 0.00 | 0.00 | 0.00 | 40 | 1009.4 |
| 20260506160045 | 78 | 190 | 4.3 | 8.7 | 0.00 | 0.00 | 0.00 | 40 | 1009.7 |
| 20260506155853 | 78 | 198 | 4.3 | 8.7 | 0.00 | 0.00 | 0.00 | 40 | 1009.5 |
| 20260506155528 | 78 | 213 | 3.5 | 8.7 | 0.00 | 0.00 | 0.00 | 40 | 1009.8 |
| 20260506155355 | 78 | 178 | 4.3 | 8.7 | 0.00 | 0.00 | 0.00 | 41 | 1009.5 |
| 20260506155029 | 77 | 170 | 3.5 | 12.2 | 0.00 | 0.00 | 0.00 | 40 | 1009.8 |
| 20260506154851 | 78 | 148 | 3.5 | 13.0 | 0.00 | 0.00 | 0.00 | 42 | 1009.6 |
| 20260506154552 | 78 | 169 | 4.3 | 13.0 | 0.00 | 0.00 | 0.00 | 40 | 1009.9 |
| 20260506154348 | 78 | 155 | 5.2 | 13.0 | 0.00 | 0.00 | 0.00 | 40 | 1009.6 |
| 20260506154030 | 78 | 186 | 7.0 | 13.0 | 0.00 | 0.00 | 0.00 | 39 | 1009.9 |
| 20260506153846 | 78 | 178 | 6.1 | 13.0 | 0.00 | 0.00 | 0.00 | 40 | 1009.6 |
| 20260506153530 | 78 | 166 | 6.1 | 13.0 | 0.00 | 0.00 | 0.00 | 40 | 1009.9 |
| 20260506153040 | 78 | 156 | 4.3 | 13.9 | 0.00 | 0.00 | 0.00 | 40 | 1010.0 |
| 20260506152843 | 79 | 160 | 4.3 | 13.9 | 0.00 | 0.00 | 0.00 | 40 | 1009.8 |
| 20260506152529 | 79 | 183 | 3.5 | 13.9 | 0.00 | 0.00 | 0.00 | 40 | 1010.0 |
| 20260506152341 | 79 | 247 | 4.3 | 13.9 | 0.00 | 0.00 | 0.00 | 39 | 1009.7 |
| 20260506152029 | 78 | 237 | 6.1 | 13.9 | 0.00 | 0.00 | 0.00 | 39 | 1009.9 |
| 20260506151839 | 79 | 252 | 6.1 | 11.3 | 0.00 | 0.00 | 0.00 | 39 | 1009.7 |
| 20260506151547 | 78 | 239 | 5.2 | 12.2 | 0.00 | 0.00 | 0.00 | 39 | 1010.0 |
| 20260506151338 | 78 | 162 | 4.3 | 12.2 | 0.00 | 0.00 | 0.00 | 40 | 1009.8 |
| 20260506151029 | 78 | 181 | 5.2 | 12.2 | 0.00 | 0.00 | 0.00 | 39 | 1010.1 |
| 20260506150529 | 78 | 195 | 2.6 | 13.0 | 0.00 | 0.00 | 0.00 | 40 | 1010.1 |
| 20260506150334 | 78 | 146 | 3.5 | 12.2 | 0.00 | 0.00 | 0.00 | 41 | 1009.9 |
| 20260506150045 | 78 | 214 | 5.2 | 13.9 | 0.00 | 0.00 | 0.00 | 40 | 1010.2 |
| 20260506145834 | 78 | 173 | 6.1 | 13.0 | 0.00 | 0.00 | 0.00 | 40 | 1010.0 |
| 20260506145530 | 78 | 174 | 6.1 | 13.9 | 0.00 | 0.00 | 0.00 | 39 | 1010.2 |
| 20260506145336 | 78 | 271 | 7.8 | 13.0 | 0.00 | 0.00 | 0.00 | 40 | 1010.0 |
| 20260506145028 | 78 | 144 | 7.0 | 13.0 | 0.00 | 0.00 | 0.00 | 40 | 1010.3 |
| 20260506144830 | 79 | 218 | 8.7 | 12.2 | 0.00 | 0.00 | 0.00 | 39 | 1010.1 |
| 20260506144542 | 79 | 126 | 5.2 | 16.5 | 0.00 | 0.00 | 0.00 | 39 | 1010.3 |
| 20260506144329 | 79 | 192 | 7.0 | 14.8 | 0.00 | 0.00 | 0.00 | 39 | 1010.0 |
| 20260506144029 | 79 | 218 | 7.0 | 16.5 | 0.00 | 0.00 | 0.00 | 39 | 1010.3 |
| 20260506143827 | 79 | 240 | 7.8 | 14.8 | 0.00 | 0.00 | 0.00 | 39 | 1010.1 |
| 20260506143530 | 79 | 205 | 3.5 | 13.9 | 0.00 | 0.00 | 0.00 | 39 | 1010.4 |
| 20260506143325 | 79 | 181 | 5.2 | 14.8 | 0.00 | 0.00 | 0.00 | 40 | 1010.1 |
| 20260506143042 | 79 | 153 | 4.3 | 14.8 | 0.00 | 0.00 | 0.00 | 39 | 1010.4 |
| 20260506142823 | 80 | 215 | 5.2 | 14.8 | 0.00 | 0.00 | 0.00 | 39 | 1010.2 |
| 20260506142529 | 80 | 250 | 6.1 | 14.8 | 0.00 | 0.00 | 0.00 | 38 | 1010.4 |
| 20260506142322 | 81 | 187 | 5.2 | 14.8 | 0.00 | 0.00 | 0.00 | 40 | 1010.2 |
| 20260506142029 | 80 | 209 | 6.1 | 14.8 | 0.00 | 0.00 | 0.00 | 38 | 1010.4 |
| 20260506141541 | 80 | 221 | 6.1 | 14.8 | 0.00 | 0.00 | 0.00 | 39 | 1010.4 |
| 20260506141319 | 81 | 221 | 7.8 | 13.0 | 0.00 | 0.00 | 0.00 | 39 | 1010.3 |
| 20260506141029 | 80 | 231 | 6.1 | 13.0 | 0.00 | 0.00 | 0.00 | 38 | 1010.5 |
| 20260506140818 | 80 | 162 | 7.8 | 13.0 | 0.00 | 0.00 | 0.00 | 39 | 1010.2 |
| 20260506140528 | 80 | 198 | 5.2 | 14.8 | 0.00 | 0.00 | 0.00 | 39 | 1010.5 |
| 20260506140316 | 80 | 216 | 6.1 | 13.0 | 0.00 | 0.00 | 0.00 | 39 | 1010.2 |
| 20260506140041 | 80 | 211 | 7.0 | 14.8 | 0.00 | 0.00 | 0.00 | 39 | 1010.5 |
| 20260506135814 | 80 | 154 | 7.8 | 13.9 | 0.00 | 0.00 | 0.00 | 39 | 1010.3 |
| 20260506135529 | 80 | 172 | 6.1 | 14.8 | 0.00 | 0.00 | 0.00 | 40 | 1010.6 |
| 20260506135316 | 80 | 191 | 7.8 | 13.9 | 0.00 | 0.00 | 0.00 | 39 | 1010.3 |
| 20260506135029 | 80 | 167 | 7.8 | 14.8 | 0.00 | 0.00 | 0.00 | 39 | 1010.6 |
| 20260506134811 | 81 | 205 | 7.8 | 14.8 | 0.00 | 0.00 | 0.00 | 38 | 1010.4 |
| 20260506134545 | 80 | 163 | 4.3 | 16.5 | 0.00 | 0.00 | 0.00 | 39 | 1010.6 |
| 20260506134309 | 80 | 140 | 5.2 | 16.5 | 0.00 | 0.00 | 0.00 | 40 | 1010.3 |
| 20260506134028 | 79 | 198 | 7.0 | 16.5 | 0.00 | 0.00 | 0.00 | 40 | 1010.7 |
| 20260506133807 | 79 | 216 | 7.0 | 16.5 | 0.00 | 0.00 | 0.00 | 40 | 1010.4 |
| 20260506133528 | 78 | 352 | 7.0 | 13.9 | 0.00 | 0.00 | 0.00 | 40 | 1010.7 |
| 20260506133306 | 79 | 254 | 8.7 | 13.9 | 0.00 | 0.00 | 0.00 | 40 | 1010.5 |
| 20260506133047 | 79 | 258 | 8.7 | 15.6 | 0.00 | 0.00 | 0.00 | 40 | 1010.8 |
| 20260506132804 | 79 | 191 | 7.8 | 13.9 | 0.00 | 0.00 | 0.00 | 40 | 1010.5 |
| 20260506132527 | 78 | 220 | 6.1 | 18.2 | 0.00 | 0.00 | 0.00 | 39 | 1010.9 |
| 20260506132031 | 78 | 211 | 7.0 | 18.2 | 0.00 | 0.00 | 0.00 | 42 | 1010.9 |
| 20260506131801 | 78 | 159 | 7.8 | 16.5 | 0.00 | 0.00 | 0.00 | 41 | 1010.6 |
| 20260506131542 | 77 | 165 | 6.1 | 17.4 | 0.00 | 0.00 | 0.00 | 41 | 1010.9 |
| 20260506131259 | 77 | 157 | 8.7 | 16.5 | 0.00 | 0.00 | 0.00 | 41 | 1010.6 |
| 20260506131029 | 77 | 157 | 6.1 | 16.5 | 0.00 | 0.00 | 0.00 | 41 | 1011.0 |
| 20260506130758 | 78 | 139 | 6.1 | 16.5 | 0.00 | 0.00 | 0.00 | 42 | 1010.7 |
| 20260506130529 | 78 | 188 | 7.0 | 16.5 | 0.00 | 0.00 | 0.00 | 41 | 1010.9 |
| 20260506130256 | 78 | 205 | 7.8 | 16.5 | 0.00 | 0.00 | 0.00 | 40 | 1010.7 |
| 20260506130041 | 78 | 198 | 4.3 | 13.9 | 0.00 | 0.00 | 0.00 | 40 | 1010.9 |
| 20260506125755 | 79 | 188 | 6.1 | 13.9 | 0.00 | 0.00 | 0.00 | 41 | 1010.7 |
| 20260506125528 | 79 | 126 | 6.1 | 17.4 | 0.00 | 0.00 | 0.00 | 40 | 1011.0 |
| 20260506125257 | 80 | 224 | 4.3 | 16.5 | 0.00 | 0.00 | 0.00 | 39 | 1010.7 |
| 20260506125028 | 80 | 211 | 7.0 | 17.4 | 0.00 | 0.00 | 0.00 | 39 | 1011.0 |
| 20260506124544 | 80 | 241 | 7.0 | 13.0 | 0.00 | 0.00 | 0.00 | 38 | 1010.9 |
| 20260506124251 | 80 | 244 | 7.0 | 14.8 | 0.00 | 0.00 | 0.00 | 39 | 1010.7 |
| 20260506124028 | 80 | 220 | 5.2 | 14.8 | 0.00 | 0.00 | 0.00 | 40 | 1011.0 |
| 20260506123748 | 80 | 237 | 6.1 | 14.8 | 0.00 | 0.00 | 0.00 | 39 | 1010.8 |
| 20260506123528 | 80 | 153 | 7.0 | 15.6 | 0.00 | 0.00 | 0.00 | 38 | 1011.1 |
| 20260506123247 | 80 | 187 | 7.0 | 14.8 | 0.00 | 0.00 | 0.00 | 41 | 1010.8 |
| 20260506123050 | 80 | 171 | 5.2 | 15.6 | 0.00 | 0.00 | 0.00 | 39 | 1011.2 |
| 20260506122745 | 80 | 226 | 7.8 | 14.8 | 0.00 | 0.00 | 0.00 | 40 | 1010.8 |
| 20260506122528 | 79 | 205 | 7.8 | 15.6 | 0.00 | 0.00 | 0.00 | 40 | 1011.1 |
| 20260506122243 | 79 | 165 | 7.0 | 13.0 | 0.00 | 0.00 | 0.00 | 41 | 1010.9 |
| 20260506122028 | 78 | 137 | 5.2 | 13.9 | 0.00 | 0.00 | 0.00 | 41 | 1011.1 |
| 20260506121742 | 79 | 258 | 7.0 | 13.0 | 0.00 | 0.00 | 0.00 | 40 | 1011.0 |
| 20260506121553 | 79 | 165 | 7.8 | 14.8 | 0.00 | 0.00 | 0.00 | 39 | 1011.2 |
| 20260506121241 | 79 | 245 | 5.2 | 13.0 | 0.00 | 0.00 | 0.00 | 41 | 1010.9 |
| 20260506121028 | 79 | 167 | 6.1 | 14.8 | 0.00 | 0.00 | 0.00 | 41 | 1011.1 |
| 20260506120739 | 80 | 180 | 6.1 | 13.0 | 0.00 | 0.00 | 0.00 | 40 | 1010.9 |
| 20260506120529 | 79 | 221 | 6.1 | 13.9 | 0.00 | 0.00 | 0.00 | 41 | 1011.1 |
| 20260506120237 | 79 | 185 | 4.3 | 12.2 | 0.00 | 0.00 | 0.00 | 42 | 1011.0 |
| 20260506120044 | 79 | 163 | 6.1 | 13.9 | 0.00 | 0.00 | 0.00 | 40 | 1011.2 |
| 20260506115735 | 79 | 176 | 7.8 | 12.2 | 0.00 | 0.00 | 0.00 | 42 | 1011.1 |
| 20260506115530 | 78 | 207 | 4.3 | 13.9 | 0.00 | 0.00 | 0.00 | 42 | 1011.3 |
| 20260506115237 | 78 | 223 | 6.1 | 12.2 | 0.00 | 0.00 | 0.00 | 42 | 1011.1 |
| 20260506115028 | 78 | 192 | 6.1 | 13.9 | 0.00 | 0.00 | 0.00 | 41 | 1011.4 |
| 20260506114732 | 78 | 165 | 7.0 | 13.0 | 0.00 | 0.00 | 0.00 | 43 | 1011.0 |
| 20260506114542 | 77 | 157 | 6.1 | 13.9 | 0.00 | 0.00 | 0.00 | 42 | 1011.3 |
| 20260506114230 | 77 | 194 | 7.0 | 15.6 | 0.00 | 0.00 | 0.00 | 43 | 1011.0 |
| 20260506114028 | 77 | 223 | 7.0 | 17.4 | 0.00 | 0.00 | 0.00 | 42 | 1011.3 |
| 20260506113728 | 77 | 187 | 7.8 | 15.6 | 0.00 | 0.00 | 0.00 | 43 | 1011.2 |
| 20260506113532 | 76 | 197 | 7.8 | 17.4 | 0.00 | 0.00 | 0.00 | 42 | 1011.5 |
| 20260506113227 | 77 | 192 | 5.2 | 14.8 | 0.00 | 0.00 | 0.00 | 42 | 1011.1 |
| 20260506113041 | 77 | 204 | 6.1 | 14.8 | 0.00 | 0.00 | 0.00 | 41 | 1011.4 |
| 20260506112726 | 78 | 173 | 6.1 | 14.8 | 0.00 | 0.00 | 0.00 | 42 | 1011.3 |
| 20260506112532 | 78 | 175 | 6.1 | 14.8 | 0.00 | 0.00 | 0.00 | 41 | 1011.5 |
| 20260506112224 | 78 | 193 | 7.8 | 13.0 | 0.00 | 0.00 | 0.00 | 41 | 1011.2 |
| 20260506112030 | 78 | 210 | 7.0 | 16.5 | 0.00 | 0.00 | 0.00 | 41 | 1011.5 |
| 20260506111722 | 78 | 162 | 7.0 | 16.5 | 0.00 | 0.00 | 0.00 | 42 | 1011.3 |
| 20260506111547 | 77 | 166 | 6.1 | 16.5 | 0.00 | 0.00 | 0.00 | 42 | 1011.6 |
| 20260506111029 | 77 | 171 | 5.2 | 13.9 | 0.00 | 0.00 | 0.00 | 42 | 1011.6 |
| 20260506110719 | 78 | 218 | 5.2 | 13.9 | 0.00 | 0.00 | 0.00 | 42 | 1011.3 |
| 20260506110528 | 77 | 218 | 5.2 | 13.9 | 0.00 | 0.00 | 0.00 | 41 | 1011.6 |
| 20260506110218 | 78 | 198 | 7.0 | 13.9 | 0.00 | 0.00 | 0.00 | 42 | 1011.4 |
| 20260506110045 | 77 | 208 | 7.0 | 13.9 | 0.00 | 0.00 | 0.00 | 41 | 1011.6 |
| 20260506105528 | 76 | 153 | 4.3 | 13.0 | 0.00 | 0.00 | 0.00 | 43 | 1011.7 |
| 20260506105218 | 76 | 211 | 7.0 | 13.0 | 0.00 | 0.00 | 0.00 | 43 | 1011.4 |
| 20260506105027 | 76 | 210 | 6.1 | 13.0 | 0.00 | 0.00 | 0.00 | 42 | 1011.8 |
| 20260506104712 | 76 | 210 | 7.8 | 15.6 | 0.00 | 0.00 | 0.00 | 43 | 1011.4 |
| 20260506104547 | 75 | 241 | 6.1 | 15.6 | 0.00 | 0.00 | 0.00 | 43 | 1011.7 |
| 20260506104211 | 76 | 171 | 7.0 | 15.6 | 0.00 | 0.00 | 0.00 | 43 | 1011.5 |
| 20260506104029 | 76 | 185 | 7.8 | 16.5 | 0.00 | 0.00 | 0.00 | 42 | 1011.8 |
| 20260506103529 | 76 | 182 | 7.8 | 17.4 | 0.00 | 0.00 | 0.00 | 42 | 1011.9 |
| 20260506103208 | 76 | 186 | 9.6 | 16.5 | 0.00 | 0.00 | 0.00 | 42 | 1011.6 |
| 20260506103045 | 76 | 185 | 8.7 | 17.4 | 0.00 | 0.00 | 0.00 | 41 | 1011.9 |
| 20260506102706 | 77 | 207 | 9.6 | 16.5 | 0.00 | 0.00 | 0.00 | 42 | 1011.5 |
| 20260506102530 | 76 | 200 | 7.8 | 15.6 | 0.00 | 0.00 | 0.00 | 41 | 1011.8 |
| 20260506102205 | 77 | 166 | 6.1 | 14.8 | 0.00 | 0.00 | 0.00 | 42 | 1011.6 |
| 20260506102032 | 77 | 244 | 7.0 | 15.6 | 0.00 | 0.00 | 0.00 | 42 | 1011.9 |
| 20260506101703 | 77 | 223 | 7.0 | 17.4 | 0.00 | 0.00 | 0.00 | 41 | 1011.5 |
| 20260506101541 | 77 | 236 | 7.0 | 18.2 | 0.00 | 0.00 | 0.00 | 41 | 1011.8 |
| 20260506101201 | 77 | 207 | 8.7 | 17.4 | 0.00 | 0.00 | 0.00 | 40 | 1011.6 |
| 20260506101028 | 77 | 200 | 7.8 | 18.2 | 0.00 | 0.00 | 0.00 | 40 | 1012.0 |
| 20260506100659 | 77 | 232 | 8.7 | 16.5 | 0.00 | 0.00 | 0.00 | 41 | 1011.7 |
| 20260506100549 | 77 | 212 | 7.0 | 16.5 | 0.00 | 0.00 | 0.00 | 40 | 1011.8 |
| 20260506100158 | 78 | 192 | 8.7 | 16.5 | 0.00 | 0.00 | 0.00 | 41 | 1011.7 |
| 20260506100040 | 77 | 231 | 6.1 | 15.6 | 0.00 | 0.00 | 0.00 | 40 | 1011.9 |
| 20260506095701 | 77 | 225 | 7.0 | 16.5 | 0.00 | 0.00 | 0.00 | 42 | 1011.7 |
| 20260506095528 | 77 | 232 | 7.8 | 19.1 | 0.00 | 0.00 | 0.00 | 42 | 1012.0 |
| 20260506095029 | 76 | 166 | 7.8 | 19.1 | 0.00 | 0.00 | 0.00 | 42 | 1012.0 |
| 20260506094653 | 77 | 242 | 8.7 | 15.6 | 0.00 | 0.00 | 0.00 | 42 | 1011.7 |
| 20260506094546 | 76 | 217 | 7.8 | 19.1 | 0.00 | 0.00 | 0.00 | 42 | 1012.0 |
| 20260506094151 | 77 | 241 | 10.4 | 15.6 | 0.00 | 0.00 | 0.00 | 42 | 1011.7 |
| 20260506094027 | 76 | 250 | 7.0 | 15.6 | 0.00 | 0.00 | 0.00 | 42 | 1011.9 |
| 20260506093528 | 76 | 144 | 6.1 | 12.2 | 0.00 | 0.00 | 0.00 | 43 | 1012.0 |
| 20260506093148 | 76 | 154 | 6.1 | 12.2 | 0.00 | 0.00 | 0.00 | 45 | 1011.7 |
| 20260506093045 | 76 | 223 | 5.2 | 12.2 | 0.00 | 0.00 | 0.00 | 44 | 1012.0 |
| 20260506092646 | 76 | 163 | 6.1 | 10.4 | 0.00 | 0.00 | 0.00 | 45 | 1011.7 |
| 20260506092530 | 75 | 205 | 6.1 | 13.9 | 0.00 | 0.00 | 0.00 | 45 | 1011.9 |
| 20260506092144 | 76 | 159 | 4.3 | 13.0 | 0.00 | 0.00 | 0.00 | 46 | 1011.8 |
| 20260506092028 | 75 | 250 | 5.2 | 13.9 | 0.00 | 0.00 | 0.00 | 45 | 1012.0 |
| 20260506091643 | 75 | 185 | 7.8 | 14.8 | 0.00 | 0.00 | 0.00 | 47 | 1011.7 |
| 20260506091542 | 74 | 211 | 7.0 | 17.4 | 0.00 | 0.00 | 0.00 | 47 | 1012.0 |
| 20260506091142 | 74 | 237 | 7.8 | 15.6 | 0.00 | 0.00 | 0.00 | 46 | 1011.7 |
| 20260506091029 | 74 | 200 | 7.8 | 17.4 | 0.00 | 0.00 | 0.00 | 46 | 1012.0 |
| 20260506090640 | 74 | 257 | 7.8 | 15.6 | 0.00 | 0.00 | 0.00 | 46 | 1011.8 |
| 20260506090527 | 74 | 216 | 7.8 | 14.8 | 0.00 | 0.00 | 0.00 | 47 | 1012.1 |
| 20260506090139 | 74 | 202 | 7.8 | 14.8 | 0.00 | 0.00 | 0.00 | 48 | 1011.8 |
| 20260506090046 | 73 | 238 | 7.0 | 14.8 | 0.00 | 0.00 | 0.00 | 47 | 1012.0 |
| 20260506085641 | 74 | 163 | 5.2 | 14.8 | 0.00 | 0.00 | 0.00 | 49 | 1011.7 |
| 20260506085529 | 73 | 166 | 3.5 | 14.8 | 0.00 | 0.00 | 0.00 | 49 | 1012.0 |
| 20260506085136 | 73 | 169 | 7.0 | 14.8 | 0.00 | 0.00 | 0.00 | 49 | 1011.8 |
| 20260506085029 | 73 | 173 | 7.0 | 14.8 | 0.00 | 0.00 | 0.00 | 50 | 1012.1 |
| 20260506084633 | 73 | 151 | 7.0 | 14.8 | 0.00 | 0.00 | 0.00 | 51 | 1012.0 |
| 20260506084545 | 72 | 180 | 6.1 | 12.2 | 0.00 | 0.00 | 0.00 | 50 | 1012.1 |
| 20260506084132 | 73 | 250 | 6.1 | 11.3 | 0.00 | 0.00 | 0.00 | 50 | 1011.7 |
| 20260506084030 | 72 | 227 | 5.2 | 13.9 | 0.00 | 0.00 | 0.00 | 51 | 1012.1 |
| 20260506083630 | 72 | 188 | 7.0 | 13.9 | 0.00 | 0.00 | 0.00 | 51 | 1011.8 |
| 20260506083531 | 72 | 196 | 7.0 | 13.9 | 0.00 | 0.00 | 0.00 | 50 | 1012.1 |
| 20260506083049 | 71 | 183 | 7.0 | 14.8 | 0.00 | 0.00 | 0.00 | 51 | 1012.0 |
| 20260506082628 | 71 | 253 | 4.3 | 14.8 | 0.00 | 0.00 | 0.00 | 52 | 1011.8 |
| 20260506082532 | 71 | 197 | 7.0 | 14.8 | 0.00 | 0.00 | 0.00 | 51 | 1012.1 |
| 20260506082126 | 72 | 158 | 7.8 | 12.2 | 0.00 | 0.00 | 0.00 | 52 | 1011.8 |
| 20260506082029 | 71 | 160 | 6.1 | 13.0 | 0.00 | 0.00 | 0.00 | 53 | 1012.0 |
| 20260506081625 | 71 | 248 | 5.2 | 13.9 | 0.00 | 0.00 | 0.00 | 54 | 1011.8 |
| 20260506081548 | 71 | 241 | 5.2 | 13.9 | 0.00 | 0.00 | 0.00 | 52 | 1012.0 |
| 20260506081123 | 71 | 216 | 5.2 | 13.9 | 0.00 | 0.00 | 0.00 | 54 | 1011.9 |
| 20260506081029 | 70 | 240 | 6.1 | 16.5 | 0.00 | 0.00 | 0.00 | 52 | 1012.2 |
| 20260506080528 | 70 | 185 | 7.0 | 16.5 | 0.00 | 0.00 | 0.00 | 53 | 1012.2 |
| 20260506080119 | 70 | 185 | 7.8 | 13.0 | 0.00 | 0.00 | 0.00 | 54 | 1011.9 |
| 20260506073110 | 68 | 231 | 5.2 | 12.2 | 0.00 | 0.00 | 0.00 | 56 | 1012.0 |
| 20260506073042 | 68 | 244 | 6.1 | 13.0 | 0.00 | 0.00 | 0.00 | 56 | 1012.2 |
| 20260506072608 | 68 | 185 | 7.0 | 11.3 | 0.00 | 0.00 | 0.00 | 57 | 1012.0 |
| 20260506072530 | 68 | 160 | 6.1 | 13.0 | 0.00 | 0.00 | 0.00 | 56 | 1012.2 |
| 20260506072107 | 68 | 243 | 3.5 | 11.3 | 0.00 | 0.00 | 0.00 | 58 | 1012.0 |
| 20260506072030 | 68 | 273 | 3.5 | 13.0 | 0.00 | 0.00 | 0.00 | 57 | 1012.2 |
| 20260506071605 | 68 | 180 | 6.1 | 11.3 | 0.00 | 0.00 | 0.00 | 58 | 1012.0 |
| 20260506071542 | 67 | 198 | 5.2 | 12.2 | 0.00 | 0.00 | 0.00 | 57 | 1012.3 |
| 20260506071103 | 68 | 209 | 2.6 | 10.4 | 0.00 | 0.00 | 0.00 | 59 | 1012.0 |
| 20260506071029 | 67 | 207 | 3.5 | 10.4 | 0.00 | 0.00 | 0.00 | 58 | 1012.3 |
| 20260506070601 | 67 | 164 | 5.2 | 10.4 | 0.00 | 0.00 | 0.00 | 59 | 1012.0 |
| 20260506070529 | 67 | 186 | 4.3 | 10.4 | 0.00 | 0.00 | 0.00 | 59 | 1012.3 |
| 20260506062047 | 64 | 207 | 6.1 | 10.4 | 0.00 | 0.00 | 0.00 | 64 | 1012.2 |
| 20260506062029 | 63 | 197 | 5.2 | 16.5 | 0.00 | 0.00 | 0.00 | 64 | 1012.5 |
| 20260506061548 | 63 | 189 | 5.2 | 16.5 | 0.00 | 0.00 | 0.00 | 64 | 1012.5 |
| 20260506061546 | 64 | 211 | 7.0 | 13.0 | 0.00 | 0.00 | 0.00 | 64 | 1012.2 |
| 20260506061044 | 63 | 159 | 5.2 | 13.0 | 0.00 | 0.00 | 0.00 | 65 | 1012.2 |
| 20260506061031 | 63 | 169 | 5.2 | 12.2 | 0.00 | 0.00 | 0.00 | 65 | 1012.5 |